Regional Weather Roundup
Issued by NWS

Home | Current Version | Previous Version | Graphics & Text | Print | Product List | Glossary On
Versions: 1 2 3 4 5 6 7 8 9 10 11 12 13 14 15 16 17 18 19 20 21 22 23 24 25 26 27 28 29 30 31 32 33 34 35 36 37 38 39 40 41 42 43 44 45 46 47 48 49 50
000
ASUS43 KMKX 022000
RWRWI

WISCONSIN REGIONAL WEATHER ROUNDUP
NATIONAL WEATHER SERVICE MILWAUKEE/SULLIVAN WI
300 PM CDT TUE SEP 02 2014

NOTE: "FAIR" INDICATES FEW OR NO CLOUDS BELOW 12,000 FEET WITH NO
SIGNIFICANT WEATHER AND/OR OBSTRUCTIONS TO VISIBILITY.

WIZ001-002-006>008-014>016-023>028-022100-
NORTHWEST WISCONSIN

CITY           SKY/WX    TMP DP  RH WIND       PRES   REMARKS
SUPERIOR ARPT  PTSUNNY   74  52  45 SW12      29.81S
ASHLAND        MOSUNNY   74  54  49 SW10G18   29.84S
HAYWARD        SUNNY     74  51  44 VRB7      29.87S
SIREN          MOSUNNY   75  50  42 W14       29.88S
RICE LAKE      SUNNY     74  50  43 W6        29.90S
LADYSMITH      SUNNY     74  52  46 W9        29.90S
EAU CLAIRE     NOT AVBL
MENOMONIE      PTCLDY    78  52  40 SW10      29.89S
NEW RICHMOND   SUNNY     76  50  40 W9        29.90S
OSCEOLA        SUNNY     75  54  47 W7        29.92R
$$

WIZ003>005-009-010-017-018-022100-
NORTH CENTRAL WISCONSIN

CITY           SKY/WX    TMP DP  RH WIND       PRES   REMARKS
WOODRUFF       MOSUNNY   72  49  44 NW8G16    29.88S
RHINELANDER    MOSUNNY   72  50  45 NW8       29.88F
EAGLE RIVER    MOSUNNY   71  46  41 NW7       29.87R
LAND O LAKES   MOSUNNY   73  46  38 W10       29.87S
PHILLIPS       SUNNY     72  51  47 W7        29.88S
TOMAHAWK       MOSUNNY   72  50  46 W9        29.89S
MEDFORD        MOSUNNY   73  54  52 W10       29.90S
MERRILL        MOSUNNY   75  53  46 W9        29.88S
$$

WIZ029-030-035-036-043>047-022100-
CENTRAL WISCONSIN

CITY           SKY/WX    TMP DP  RH WIND       PRES   REMARKS
WAUSAU         SUNNY     75  54  47 W14       29.87F
MOSINEE        MOSUNNY   73  57  56 W13       29.89F
MARSHFIELD     PTSUNNY   73  57  57 W10       29.89S
STEVENS POINT  SUNNY     73  57  56 W7        29.89F
WAUPACA        MOSUNNY   78  57  48 W7        29.89S
WAUTOMA        NOT AVBL
WISC RAPIDS    MOSUNNY   77  57  50 W10       29.91S
CAMP DOUGLAS   NOT AVBL
$$

WIZ011>013-019>022-031-037>040-048>050-022100-
NORTHEAST WISCONSIN

CITY           SKY/WX    TMP DP  RH WIND       PRES   REMARKS
ANTIGO         MOSUNNY   72  55  54 W8        29.88F
STURGEON BAY   SUNNY     73  57  56 SW14      29.87S
GREEN BAY      MOSUNNY   76  60  57 W15       29.87S
MANITOWOC      NOT AVBL
APPLETON       PTSUNNY   75  57  53 W9        29.89S
CLINTONVILLE   SUNNY     73  55  53 W8        29.87S
OSHKOSH        MOSUNNY   75  60  59 W6        29.88S
$$

WIZ032>034-041-042-053>061-022100-
SOUTHWEST WISCONSIN

CITY           SKY/WX    TMP DP  RH WIND       PRES   REMARKS
LA CROSSE      PTSUNNY   80  57  45 W10       29.90S HX  80
SPARTA         MOSUNNY   77  54  45 W9        29.91S
VIROQUA        FAIR      76  56  50 W10       29.93S
BOSCOBEL       SUNNY     81  56  42 VRB7      29.92R HX  81
PRAIRIE DU CHI MOSUNNY   78  52  39 SW8       29.92S
PLATTEVILLE    FAIR      76  58  54 W14       29.94S
$$

WIZ056-057-062-063-064-067-068-022100-
SOUTH CENTRAL WISCONSIN

CITY           SKY/WX    TMP DP  RH WIND       PRES   REMARKS
BARABOO/DELLS  MOSUNNY   78  50  36 W8        29.91S
LONE ROCK      NOT AVBL
WATERTOWN      SUNNY     76  59  54 W6        29.91S
MADISON        MOSUNNY   77  57  50 NW8       29.91S
MIDDLETON      FAIR      77  57  49 NW9       29.92S
MONROE         MOSUNNY   77  55  47 W17       29.93R
JANESVILLE     PTSUNNY   79  57  47 W12       29.91R HX  80
$$

WIZ051-052-058>065-066-070>072-022100-
SOUTHEAST WISCONSIN

CITY           SKY/WX    TMP DP  RH WIND       PRES   REMARKS
MILWAUKEE      PTSUNNY   78  58  49 SW9       29.90S
WAUKESHA       PTSUNNY   72  61  68 W8        29.92S
MILWAUKEE/TIMM PTSUNNY   75  59  57 W7        29.90S
RACINE         MOSUNNY   80  57  45 VRB6      29.91S HX  80
BURLINGTON     SUNNY     77  55  46 SW6       29.91F
KENOSHA        MOSUNNY   79  59  50 W10       29.91S HX  80
FOND DU LAC    PTSUNNY   76  59  55 W10       29.89S
SHEBOYGAN      MOSUNNY   77  61  57 W5        29.88F
WEST BEND      PTSUNNY   73  57  56 W6        29.90F
JUNEAU         SUNNY     75  61  62 W5        29.91F
$$

LSZ147-162-022100-
LAKE SUPERIOR

STATION/POSITION TIME  TEMP    WIND        PRES    WAVE
                       AIR SEA DIR/SP/G            HT/PER
                 (UTC) (F)     (DEG/KT/KT) (MB)    (FT/S)
W MID LAKE BUOY  1850   60 58  210/ 12/ 14 1008.7F   2/ 4
DEVILS ISLAND    1900   67     230/ 14/ 17 1009.1F
PORT WING        1940   74     260/ 10/ 17 1009.8S
SAXON HARBOR     1940   75     200/  4/ 14 1010.2S
$$

LMZ867-665-643>646-022100-
LAKE MICHIGAN

STATION/POSITION TIME  TEMP    WIND        PRES    WAVE
                       AIR SEA DIR/SP/G            HT/PER
                 (UTC) (F)     (DEG/KT/KT) (MB)    (FT/S)
N MID LAKE BUOY  1850   65 65  230/ 10/ 10 1010.4R   1/ 5
NORTHPORT PIER   1900   72     250/  7/ 13 1010.2F
KEWAUNEE LAKESHO 1900   63     180/ 10/ 13 1010.9R
SHEBOYGAN LAKESH 1900   73 50  240/ 12/ 15 1012.1R
ATWATER BUOY     1900   70     140/  8/ 10 1013.4R
MILWAUKEE LAKESH 1900   76     280/  3/  6   N/A
S MID LAKE BUOY  1850   72 73  200/  4/  6 1012.6R   0
KENOSHA   LAKESH 1900   73     130/ 10/ 11 1012.2R
$$

TC  - TEMPERATURE IN CELSIUS
VSB - VISIBILITY IN STATUTE MILES
WCI - WIND CHILL INDEX
HX  - HEAT INDEX



USA.gov is the U.S. government's official web portal to all federal, state and local government web resources and services.